Location: Buttermere
(51.3333°N, 1.5167°W)
Time: 22:13:17
(UTC+00:00)

Cosmos 1937 Rocket - Pass Details

Date: 18 September 2020
Orbit: 747 x 779 km, 74.0° (Epoch: 20 October)

Event Time Altitude Azimuth Distance (km) Brightness Sun altitude
Rises 18:54:08 0° 188° (S) 3,234 6.7 -7.3°
Reaches altitude 10° 18:56:32 10° 184° (S) 2,307 5.9 -7.6°
Maximum altitude 19:01:38 55° 108° (ESE) 918 3.6 -8.4°
Drops below altitude 10° 19:06:43 10° 32° (NNE) 2,302 5.8 -9.2°
Sets 19:09:07 0° 28° (NNE) 3,227 6.6 -9.5°
